Satellite: UO-22
Catalog number: 21575
Epoch time:      04357.85516565
Element set:    0286
Inclination:      098.2195 deg
RA of node:       324.0837 deg
Eccentricity:    0.0006399
Arg of perigee:   259.6206 deg
Mean anomaly:     100.4253 deg
Mean motion:   14.39447116 rev/day
Decay rate:       1.02e-06 rev/day^2
Epoch rev:           70513
Checksum:              302

Satellite: KO-23
Catalog number: 22077
Epoch time:      04358.36605652
Element set:     346
Inclination:       66.0861 deg
RA of node:       154.6633 deg
Eccentricity:    0.0013188
Arg of perigee:   297.5966 deg
Mean anomaly:      62.3713 deg
Mean motion:   12.86427951 rev/day
Decay rate:       -3.7e-07 rev/day^2
Epoch rev:           58097
Checksum:              327

Satellite: AO-27
Catalog number: 22825
Epoch time:      04358.04208548
Element set:      20
Inclination:       98.2439 deg
RA of node:       356.9405 deg
Eccentricity:    0.0009290
Arg of perigee:    69.3541 deg
Mean anomaly:     290.8644 deg
Mean motion:   14.29104838 rev/day
Decay rate:        4.5e-07 rev/day^2
Epoch rev:           58606
Checksum:              314

Satellite: IO-26
Catalog number: 22826
Epoch time:      04358.03320690
Element set:     688
Inclination:       98.2407 deg
RA of node:       358.2213 deg
Eccentricity:    0.0010013
Arg of perigee:    64.8827 deg
Mean anomaly:     295.3393 deg
Mean motion:   14.29343090 rev/day
Decay rate:        3.6e-07 rev/day^2
Epoch rev:           58612
Checksum:              298

Satellite: KO-25
Catalog number: 22828
Epoch time:      04358.06921689
Element set:     952
Inclination:       98.2349 deg
RA of node:       358.4809 deg
Eccentricity:    0.0010729
Arg of perigee:    44.4430 deg
Mean anomaly:     315.7620 deg
Mean motion:   14.29660023 rev/day
Decay rate:        2.1e-07 rev/day^2
Epoch rev:           55435
Checksum:              309

Satellite: TO-31
Catalog number: 25396
Epoch time:      04357.79316453
Element set:     133
Inclination:       98.5541 deg
RA of node:        64.1496 deg
Eccentricity:    0.0002184
Arg of perigee:   357.7262 deg
Mean anomaly:       2.3924 deg
Mean motion:   14.23650173 rev/day
Decay rate:       -4.3e-07 rev/day^2
Epoch rev:           33531
Checksum:              288

Satellite: GO-32
Catalog number: 25397
Epoch time:      04357.87482619
Element set:     632
Inclination:       98.5449 deg
RA of node:        62.0765 deg
Eccentricity:    0.0001301
Arg of perigee:    33.7059 deg
Mean anomaly:     326.4193 deg
Mean motion:   14.23064115 rev/day
Decay rate:        7.2e-07 rev/day^2
Epoch rev:           33525
Checksum:              296

Satellite: UO-36
Catalog number: 25693
Epoch time:      04358.20235256
Element set:     759
Inclination:       64.5594 deg
RA of node:       104.1463 deg
Eccentricity:    0.0040955
Arg of perigee:   233.9274 deg
Mean anomaly:     125.8034 deg
Mean motion:   14.78439892 rev/day
Decay rate:        6.5e-07 rev/day^2
Epoch rev:           30580
Checksum:              321

Satellite: SO-41
Catalog number: 26545
Epoch time:      04357.68805834
Element set:    0958
Inclination:      064.5570 deg
RA of node:       121.3087 deg
Eccentricity:    0.0031169
Arg of perigee:   335.7943 deg
Mean anomaly:     024.1666 deg
Mean motion:   14.79965950 rev/day
Decay rate:       2.08e-06 rev/day^2
Epoch rev:           22881
Checksum:              334

Satellite: MO-46
Catalog number: 26548
Epoch time:      04357.67226230
Element set:    0061
Inclination:      064.5563 deg
RA of node:       106.1642 deg
Eccentricity:    0.0030091
Arg of perigee:   323.4071 deg
Mean anomaly:     036.4967 deg
Mean motion:   14.82551326 rev/day
Decay rate:       2.59e-06 rev/day^2
Epoch rev:           22912
Checksum:              285

Satellite: SO-42
Catalog number: 26549
Epoch time:      04358.35606065
Element set:      17
Inclination:       64.5542 deg
RA of node:       126.9226 deg
Eccentricity:    0.0031434
Arg of perigee:   344.3311 deg
Mean anomaly:      15.6817 deg
Mean motion:   14.78852761 rev/day
Decay rate:       1.89e-06 rev/day^2
Epoch rev:           22875
Checksum:              308

Satellite: NO-44
Catalog number: 26931
Epoch time:      04357.85003416
Element set:     929
Inclination:       67.0551 deg
RA of node:       321.9402 deg
Eccentricity:    0.0007383
Arg of perigee:   267.5447 deg
Mean anomaly:      92.4822 deg
Mean motion:   14.29350297 rev/day
Decay rate:       1.84e-06 rev/day^2
Epoch rev:           16856
Checksum:              314

Satellite: AO-49
Catalog number: 27605
Epoch time:      04358.10469954
Element set:     617
Inclination:       64.5589 deg
RA of node:       310.6789 deg
Eccentricity:    0.0085656
Arg of perigee:   274.5038 deg
Mean anomaly:      84.6268 deg
Mean motion:   14.72004665 rev/day
Decay rate:        9.9e-07 rev/day^2
Epoch rev:           10793
Checksum:              353

Satellite: SO-50
Catalog number: 27607
Epoch time:      04358.35393814
Element set:     599
Inclination:       64.5589 deg
RA of node:       314.5894 deg
Eccentricity:    0.0086586
Arg of perigee:   273.3821 deg
Mean anomaly:      85.7374 deg
Mean motion:   14.70836274 rev/day
Decay rate:       3.85e-06 rev/day^2
Epoch rev:           10787
Checksum:              361

